GW0273 Weather Reports


time (UTC)temp
C
wind
direction
speed
KPH
gust
KPH
rain 1hr
cm
rain 24hr
cm
rain mn
cm
humidity
%
barometer
mb
20260508043031 6 0 0.0 4.8 0.00 1.40 0.00 93 1002.2
20260508041539 7 0 0.0 12.9 0.00 1.40 0.00 92 1002.2
20260508040032 7 0 0.0 8.0 0.00 1.40 0.00 92 1002.3
20260508034534 8 122 1.6 12.9 0.00 1.40 0.00 91 1002.2
20260508033037 9 81 1.6 4.8 0.00 1.40 0.00 90 1002.4
20260508031538 10 0 0.0 3.2 0.00 1.40 0.00 89 1002.2
20260508030039 10 192 4.8 19.3 0.00 1.40 0.00 87 1002.0
20260508024530 10 0 1.6 12.9 0.00 1.40 1.40 86 1002.0
20260508023041 10 277 6.4 29.0 0.00 1.40 1.40 85 1001.9
20260508021535 10 292 14.5 25.7 0.00 1.40 1.40 87 1002.1
20260508020034 10 201 12.9 29.0 0.00 1.40 1.40 89 1002.1
20260508014534 10 215 3.2 16.1 0.00 1.40 1.40 90 1002.3
20260508013032 10 0 0.0 9.7 0.00 1.40 1.40 90 1002.1
20260508011534 10 280 4.8 22.5 0.00 1.40 1.40 90 1002.1
20260508010040 10 273 4.8 12.9 0.00 1.40 1.40 91 1002.3
20260508004534 10 0 8.0 20.9 0.00 1.40 1.40 93 1002.3
20260508003032 11 196 11.3 25.7 0.00 1.40 1.40 93 1002.2
20260508001535 10 261 1.6 12.9 0.00 1.40 1.40 96 1002.2
20260508000033 10 0 4.8 12.9 0.00 1.40 1.40 96 1001.9
20260507234537 10 0 0.0 0.0 0.00 1.40 1.40 96 1001.6
20260507233034 10 0 0.0 0.0 0.00 1.40 1.40 96 1001.7
20260507231534 10 0 0.0 0.0 0.00 1.40 1.40 96 1001.5
20260507230035 10 0 0.0 6.4 0.00 1.40 1.40 94 1001.5
20260507224550 11 0 0.0 0.0 0.00 1.40 1.40 94 1001.4
20260507223034 12 0 0.0 1.6 0.00 1.40 1.40 95 1001.6
20260507221538 12 0 0.0 4.8 0.00 1.40 1.40 95 1001.5
20260507220038 12 0 0.0 6.4 0.00 1.40 1.40 96 1001.5
20260507214538 12 0 0.0 3.2 0.00 1.40 1.40 96 1001.5
20260507213036 11 0 0.0 0.0 0.03 1.40 1.40 96 1001.5
20260507211535 11 0 0.0 3.2 0.08 1.40 1.40 96 1001.8
20260507210058 11 168 4.8 12.9 0.25 1.40 1.40 95 1001.8
20260507204536 11 338 1.6 6.4 0.38 1.40 1.40 96 1001.5
20260507203032 11 0 0.0 4.8 0.46 1.37 1.37 94 1001.9
20260507201536 11 0 0.0 1.6 0.51 1.30 1.30 95 1002.3
20260507200048 11 0 0.0 3.2 0.48 1.14 1.14 94 1002.6
20260507194533 11 60 1.6 4.8 0.46 0.99 0.99 93 1003.8
20260507193100 12 0 0.0 4.8 0.58 0.91 0.91 93 1003.7
20260507191534 12 90 0.0 17.7 0.69 0.79 0.79 92 1003.7
20260507190038 13 185 1.6 8.0 0.64 0.64 0.64 93 1003.9
20260507184531 13 171 4.8 17.7 0.51 0.51 0.51 92 1003.9
20260507183038 13 281 3.2 16.1 0.28 0.28 0.28 91 1004.2
20260507181534 15 188 4.8 27.4 0.08 0.08 0.08 87 1004.0
20260507180030 15 217 9.7 25.7 0.00 0.00 0.00 84 1003.9
20260507174532 15 234 6.4 22.5 0.00 0.00 0.00 83 1003.7
20260507173032 16 250 8.0 22.5 0.00 0.00 0.00 80 1003.8
20260507171531 16 250 16.1 35.4 0.00 0.00 0.00 79 1003.9
20260507170035 16 187 11.3 25.7 0.00 0.00 0.00 79 1004.2
20260507164533 16 252 16.1 45.1 0.00 0.00 0.00 79 1004.3
20260507163036 16 217 24.1 45.1 0.00 0.00 0.00 79 1004.6
20260507161533 16 197 17.7 38.6 0.00 0.00 0.00 77 1005.1
20260507160055 16 192 11.3 29.0 0.00 0.00 0.00 78 1005.3
20260507154535 16 274 20.9 40.2 0.00 0.00 0.00 78 1005.6
20260507153034 16 204 11.3 40.2 0.00 0.00 0.00 78 1005.7
20260507151532 16 244 9.7 41.8 0.00 0.00 0.00 79 1006.0
20260507150034 16 190 22.5 51.5 0.00 0.00 0.00 79 1006.2
20260507144544 16 174 29.0 48.3 0.00 0.00 0.00 79 1006.5
20260507143034 16 199 17.7 35.4 0.00 0.00 0.00 80 1006.9
20260507141531 16 167 24.1 51.5 0.00 0.00 0.00 80 1007.1
20260507140034 16 195 24.1 40.2 0.00 0.00 0.00 79 1007.3
20260507134535 16 193 24.1 53.1 0.00 0.00 0.00 79 1007.4
20260507133034 16 185 37.0 61.2 0.00 0.00 0.00 78 1007.4
20260507131533 16 173 27.4 53.1 0.00 0.00 0.00 79 1007.4
20260507130040 16 208 14.5 33.8 0.00 0.00 0.00 79 1007.5
20260507124531 16 200 16.1 27.4 0.00 0.00 0.00 80 1007.7
20260507123040 15 221 12.9 35.4 0.00 0.00 0.00 82 1008.2
20260507121537 15 207 14.5 41.8 0.00 0.00 0.00 82 1008.5
20260507120030 15 233 17.7 40.2 0.00 0.00 0.00 83 1009.0
20260507114531 15 187 29.0 51.5 0.00 0.00 0.00 82 1009.5
20260507113033 15 186 14.5 30.6 0.00 0.00 0.00 83 1009.5
20260507111537 15 209 8.0 22.5 0.00 0.00 0.00 83 1010.0
20260507110034 14 223 17.7 37.0 0.00 0.00 0.00 85 1009.8
20260507104532 14 217 4.8 29.0 0.00 0.00 0.00 85 1009.7
20260507103035 13 184 12.9 25.7 0.00 0.00 0.00 88 1010.6
20260507101533 12 225 3.2 9.7 0.00 0.00 0.00 86 1010.4
20260507100035 13 119 4.8 20.9 0.00 0.00 0.00 85 1010.8
20260507094534 13 234 1.6 17.7 0.00 0.00 0.00 88 1011.1
20260507093040 12 0 1.6 6.4 0.00 0.00 0.00 89 1011.6
20260507091538 12 18 0.0 3.2 0.00 0.00 0.00 88 1011.4
20260507090031 12 0 0.0 9.7 0.00 0.00 0.00 89 1011.4
20260507084534 11 12 0.0 6.4 0.00 0.00 0.00 88 1010.9
20260507083039 11 0 1.6 4.8 0.00 0.00 0.00 87 1011.4
20260507081536 11 350 0.0 4.8 0.00 0.00 0.00 86 1011.5
20260507080035 11 45 1.6 6.4 0.00 0.00 0.00 84 1011.9
20260507074535 11 0 3.2 6.4 0.00 0.00 0.00 84 1011.8
20260507073032 11 131 1.6 9.7 0.00 0.00 0.00 84 1012.1
20260507071534 12 133 1.6 12.9 0.00 0.00 0.00 83 1012.5
20260507070032 12 0 0.0 4.8 0.00 0.00 0.00 81 1012.4
20260507064531 12 0 0.0 8.0 0.00 0.00 0.00 80 1012.7
20260507063032 12 61 1.6 8.0 0.00 0.00 0.00 78 1012.7
20260507061532 14 75 3.2 11.3 0.00 0.00 0.00 72 1012.8
20260507060036 14 171 1.6 14.5 0.00 0.00 0.00 73 1013.1
20260507054532 14 0 0.0 6.4 0.00 0.00 0.00 73 1013.2
20260507053032 15 0 0.0 9.7 0.00 0.00 0.00 73 1013.4
20260507051533 15 169 8.0 25.7 0.00 0.00 0.00 73 1013.4
20260507050037 15 178 12.9 33.8 0.00 0.00 0.00 73 1013.7
20260507044535 15 180 11.3 25.7 0.00 0.00 0.00 72 1014.1